User: anonymous   Login
Location: Domont
(49.0278°N, 2.3264°E)
Time: 18:28:59
(UTC+00:00)
Language:

Cosmos 2082 - Orbit

View from above orbital plane
View from above orbital plane
View from above satellite
View from above satellite

Ground track
Ground track

The orbit data is extracted from the following two-line orbital elements,

1 20624U 90046A   22020.91956671 -.00000200  00000-0 -79742-4 0  9990
2 20624  71.0418 300.4879 0015874 337.2523  22.7895 14.14375484634263
Epoch (UTC): 20 January 2022 22:04:10
Eccentricity: 0.0015874
inclination: 71.0418°
perigee height: 833 km
apogee height: 856 km
right ascension of ascending node: 300.4879°
argument of perigee: 337.2523°
revolutions per day: 14.14375484
mean anomaly at epoch: 22.7895°
orbit number at epoch: 63426

The dashed part of the orbit path shows where the satellite is in the earth's shadow,  

DLR